UAL9 LGAV-KDEN

Flight info

Callsign UAL9
Flight time N/A
Altitude 23000
Route KRO G33 NEVRA/N0485F350 UG33 KOROS/N0485F340 UN133 PEREN/N0483F360 UL863 EVIVI DCT OKANA DCT PARAK DCT BILNA DCT REGLI DCT ATMEV DCT SUBIX DCT NEDIK DCT MITSI DCT KLONN DCT AKIVO/N0489F380 DCT ATSIX/M084F380 DCT 62N020W 63N030W 63N040W 61N050W DCT SAVRY/N0491F380 DCT VERCH DCT KLIPS DCT 57N070W/N0493F400 55N080W 52N090W DCT KP18C DCT KD81Y DCT NYTRO AALLE4
Aircraft B78X/H-SDE1E2E3FGHIJ2J3J4J5M1RWXY/LB1D1

Departure

Time 2026-05-06 16:25
Airport Athens Eleftherios Venizelos International Airport (LGAV)

Arrival

Time N/A
Airport Denver International Airport (KDEN)
Time Latitude Longitude Altitude Speed Heading
2026-05-06 16:08 37.92962 23.94054 297 ft 0 kts 214°
2026-05-06 16:17 37.92961 23.94054 293 ft 0 kts 214°
2026-05-06 16:17 37.92922 23.94040 295 ft 11 kts 176°
2026-05-06 16:18 37.92849 23.94121 299 ft 18 kts 129°
2026-05-06 16:18 37.92814 23.94258 298 ft 16 kts 78°
2026-05-06 16:18 37.92834 23.94399 299 ft 16 kts 90°
2026-05-06 16:18 37.92866 23.94526 296 ft 16 kts 46°
2026-05-06 16:19 37.92955 23.94616 298 ft 17 kts 35°
2026-05-06 16:19 37.93059 23.94717 298 ft 21 kts 39°
2026-05-06 16:19 37.93187 23.94845 293 ft 27 kts 38°
2026-05-06 16:19 37.93351 23.94998 295 ft 32 kts 35°
2026-05-06 16:20 37.93550 23.95176 288 ft 37 kts 37°
2026-05-06 16:20 37.93769 23.95390 285 ft 41 kts 38°
2026-05-06 16:20 37.93997 23.95610 283 ft 41 kts 37°
2026-05-06 16:20 37.94217 23.95817 281 ft 39 kts 37°
2026-05-06 16:21 37.94432 23.96022 279 ft 38 kts 39°
2026-05-06 16:21 37.94611 23.96200 276 ft 25 kts 38°
2026-05-06 16:21 37.94688 23.96273 275 ft 0 kts 36°
2026-05-06 16:21 37.94694 23.96278 275 ft 2 kts 36°
2026-05-06 16:22 37.94706 23.96289 275 ft 3 kts 36°
2026-05-06 16:22 37.94724 23.96306 275 ft 4 kts 36°
2026-05-06 16:22 37.94750 23.96330 275 ft 7 kts 36°
2026-05-06 16:22 37.94840 23.96412 274 ft 25 kts 35°
2026-05-06 16:23 37.95022 23.96582 272 ft 40 kts 37°
2026-05-06 16:23 37.95209 23.96761 270 ft 20 kts 37°
2026-05-06 16:23 37.95291 23.96886 269 ft 18 kts 90°
2026-05-06 16:23 37.95221 23.96998 270 ft 15 kts 158°
2026-05-06 16:24 37.95141 23.96967 271 ft 11 kts 214°
2026-05-06 16:24 37.94976 23.96816 274 ft 63 kts 217°
2026-05-06 16:24 37.94419 23.96288 276 ft 135 kts 216°
2026-05-06 16:24 37.93514 23.95408 380 ft 184 kts 218°
2026-05-06 16:25 37.92468 23.94433 1112 ft 191 kts 215°
2026-05-06 16:25 37.91284 23.93527 1806 ft 202 kts 197°
2026-05-06 16:25 37.89903 23.93189 2714 ft 205 kts 196°
2026-05-06 16:25 37.88603 23.92418 3594 ft 208 kts 212°
2026-05-06 16:26 37.87370 23.91469 4497 ft 211 kts 212°
2026-05-06 16:26 37.86083 23.90526 5378 ft 216 kts 212°
2026-05-06 16:26 37.84741 23.89573 6146 ft 228 kts 211°
2026-05-06 16:26 37.83307 23.88571 6869 ft 240 kts 211°
2026-05-06 16:27 37.81831 23.87529 7722 ft 245 kts 211°
2026-05-06 16:27 37.80344 23.86477 8586 ft 250 kts 210°
2026-05-06 16:27 37.78810 23.85396 9462 ft 254 kts 211°
2026-05-06 16:27 37.77142 23.84619 10236 ft 262 kts 181°
2026-05-06 16:28 37.75320 23.84992 11002 ft 269 kts 153°
2026-05-06 16:28 37.73855 23.86474 11612 ft 279 kts 122°
2026-05-06 16:28 37.72906 23.88665 12086 ft 297 kts 116°
2026-05-06 16:28 37.71927 23.91060 12545 ft 317 kts 116°
2026-05-06 16:29 37.70872 23.93615 13038 ft 337 kts 116°
2026-05-06 16:29 37.69746 23.96312 13540 ft 356 kts 116°
2026-05-06 16:29 37.68562 23.99152 13995 ft 375 kts 116°
2026-05-06 16:29 37.67320 24.02140 14371 ft 394 kts 116°
2026-05-06 16:30 37.66012 24.05282 14788 ft 411 kts 116°
2026-05-06 16:30 37.65119 24.07419 15242 ft 417 kts 116°
2026-05-06 16:30 37.63308 24.11749 16299 ft 423 kts 116°
2026-05-06 16:30 37.61938 24.15045 17181 ft 425 kts 115°
2026-05-06 16:31 37.60980 24.18552 18081 ft 423 kts 98°
2026-05-06 16:31 37.60747 24.22228 18905 ft 419 kts 83°
2026-05-06 16:31 37.61225 24.25818 19733 ft 412 kts 69°
2026-05-06 16:31 37.62357 24.29108 20571 ft 405 kts 54°
2026-05-06 16:32 37.64037 24.31908 21443 ft 396 kts 40°
2026-05-06 16:32 37.66144 24.34094 22298 ft 387 kts 27°
2026-05-06 16:32 37.68515 24.35585 22942 ft 385 kts 16°
2026-05-06 16:32 37.71028 24.36734 23063 ft 382 kts 15°
2026-05-06 16:33 37.73522 24.37849 23060 ft 378 kts 15°
2026-05-06 16:33 37.76015 24.38953 23077 ft 378 kts 15°
2026-05-06 16:33 37.78464 24.40052 23057 ft 372 kts 15°
2026-05-06 16:34 37.83350 24.42253 23073 ft 374 kts 15°
2026-05-06 16:34 37.85809 24.43357 23076 ft 374 kts 15°
2026-05-06 16:34 37.88263 24.44462 23062 ft 373 kts 15°
2026-05-06 16:34 37.90710 24.45564 23062 ft 373 kts 15°
2026-05-06 16:35 37.93159 24.46669 23063 ft 373 kts 15°
2026-05-06 16:35 37.95616 24.47777 23061 ft 374 kts 15°
2026-05-06 16:35 37.98043 24.48873 23062 ft 374 kts 15°
2026-05-06 16:35 38.00514 24.49904 23076 ft 371 kts 12°
2026-05-06 16:36 38.02994 24.50820 23075 ft 372 kts 12°
2026-05-06 16:36 38.05480 24.51764 23076 ft 372 kts 12°
2026-05-06 16:36 38.07963 24.52702 23074 ft 373 kts 12°
2026-05-06 16:36 38.10465 24.53636 23064 ft 373 kts 12°
2026-05-06 16:37 38.12957 24.54568 23074 ft 376 kts 12°
2026-05-06 16:37 38.15449 24.55507 23052 ft 370 kts 12°
2026-05-06 16:37 38.17923 24.56440 23151 ft 371 kts 12°
2026-05-06 16:37 38.20370 24.57362 23817 ft 370 kts 12°
2026-05-06 16:38 38.22842 24.58294 24539 ft 369 kts 12°
2026-05-06 16:38 38.25309 24.59226 25228 ft 369 kts 12°
2026-05-06 16:38 38.27776 24.60157 25873 ft 369 kts 12°
2026-05-06 16:38 38.30239 24.61088 26493 ft 369 kts 12°
2026-05-06 16:39 38.32713 24.62023 27102 ft 370 kts 12°
2026-05-06 16:39 38.35161 24.62950 27705 ft 370 kts 11°
2026-05-06 16:39 38.37634 24.63887 28277 ft 370 kts 11°
2026-05-06 16:39 38.40112 24.64826 28859 ft 370 kts 11°
2026-05-06 16:40 38.42558 24.65754 29413 ft 371 kts 11°
2026-05-06 16:40 38.45030 24.66693 29994 ft 371 kts 11°
2026-05-06 16:40 38.47504 24.67633 30462 ft 371 kts 11°
2026-05-06 16:40 38.49980 24.68574 30920 ft 371 kts 11°
2026-05-06 16:41 38.52454 24.69515 31385 ft 371 kts 11°
2026-05-06 16:41 38.54927 24.70456 31824 ft 370 kts 11°
2026-05-06 16:41 38.57391 24.71395 32260 ft 370 kts 11°
2026-05-06 16:41 38.59837 24.72328 32675 ft 370 kts 11°
2026-05-06 16:42 38.62312 24.73272 33108 ft 370 kts 11°
2026-05-06 16:42 38.64778 24.74213 33527 ft 370 kts 11°
2026-05-06 16:42 38.67253 24.75160 33931 ft 370 kts 11°
2026-05-06 16:42 38.69721 24.76103 34292 ft 370 kts 11°
2026-05-06 16:43 38.72191 24.77048 34611 ft 369 kts 11°
2026-05-06 16:43 38.74661 24.77994 34931 ft 369 kts 11°
2026-05-06 16:43 38.77088 24.78925 35045 ft 368 kts 11°
2026-05-06 16:44 38.81896 24.80773 35048 ft 354 kts 11°
2026-05-06 16:44 38.86640 24.82588 35049 ft 358 kts 11°
2026-05-06 16:45 38.91412 24.84426 35042 ft 357 kts 11°
2026-05-06 16:45 38.96155 24.86249 35046 ft 357 kts 11°
2026-05-06 16:46 39.00902 24.88080 35059 ft 358 kts 11°
2026-05-06 16:46 39.05673 24.89921 35066 ft 357 kts 11°
2026-05-06 16:46 39.08073 24.90617 35075 ft 348 kts 357°
2026-05-06 16:47 39.10484 24.90567 35080 ft 343 kts 345°
2026-05-06 16:47 39.12781 24.89799 35077 ft 339 kts 333°
2026-05-06 16:47 39.14892 24.88540 35069 ft 338 kts 332°
2026-05-06 16:48 39.19135 24.85914 35064 ft 337 kts 332°
2026-05-06 16:48 39.23341 24.83301 35064 ft 337 kts 332°
2026-05-06 16:49 39.27578 24.80670 35059 ft 337 kts 332°
2026-05-06 16:49 39.31781 24.78055 35068 ft 337 kts 332°
2026-05-06 16:50 39.36022 24.75413 35068 ft 337 kts 332°
2026-05-06 16:50 39.40235 24.72784 35065 ft 338 kts 332°
2026-05-06 16:51 39.43763 24.70581 35067 ft 338 kts 332°
2026-05-06 16:51 39.48009 24.67926 35058 ft 338 kts 332°
2026-05-06 16:52 39.52244 24.65274 35052 ft 337 kts 332°
2026-05-06 16:52 39.56449 24.62638 35046 ft 336 kts 332°
2026-05-06 16:53 39.60642 24.60005 35047 ft 336 kts 332°
2026-05-06 16:53 39.64874 24.57344 35049 ft 337 kts 332°
2026-05-06 16:54 39.69084 24.54695 35052 ft 338 kts 332°
2026-05-06 16:54 39.73314 24.52028 35064 ft 338 kts 332°
2026-05-06 16:55 39.77538 24.49362 35055 ft 336 kts 332°
2026-05-06 16:55 39.81719 24.46719 35051 ft 335 kts 332°
2026-05-06 16:56 39.85936 24.44050 35046 ft 335 kts 332°
2026-05-06 16:56 39.90123 24.41396 35046 ft 335 kts 332°
2026-05-06 16:57 39.94330 24.38726 35046 ft 335 kts 332°
2026-05-06 16:57 39.98532 24.36055 35051 ft 340 kts 332°
2026-05-06 16:58 40.02762 24.33364 35052 ft 337 kts 332°
2026-05-06 16:58 40.06983 24.30673 35050 ft 337 kts 332°
2026-05-06 16:59 40.11186 24.27991 35050 ft 337 kts 332°
2026-05-06 16:59 40.15404 24.25295 35044 ft 337 kts 332°
2026-05-06 17:00 40.19604 24.22607 35045 ft 337 kts 332°
2026-05-06 17:00 40.23833 24.19897 35047 ft 338 kts 332°
2026-05-06 17:01 40.28037 24.17199 35048 ft 338 kts 332°
2026-05-06 17:01 40.32250 24.14492 35045 ft 338 kts 332°
2026-05-06 17:02 40.36482 24.11768 35044 ft 339 kts 332°
2026-05-06 17:02 40.40713 24.09042 35045 ft 338 kts 332°
2026-05-06 17:03 40.44910 24.06333 35027 ft 337 kts 332°
2026-05-06 17:03 40.49139 24.03600 35031 ft 338 kts 332°
2026-05-06 17:04 40.53363 24.00866 35030 ft 339 kts 332°
2026-05-06 17:04 40.57606 23.98116 35034 ft 339 kts 332°
2026-05-06 17:05 40.61823 23.95404 35036 ft 339 kts 333°
2026-05-06 17:05 40.66101 23.92752 35033 ft 339 kts 332°
2026-05-06 17:06 40.70340 23.90077 35039 ft 338 kts 332°
2026-05-06 17:06 40.74570 23.87419 35026 ft 337 kts 332°
2026-05-06 17:07 40.78715 23.84805 35021 ft 337 kts 332°
2026-05-06 17:07 40.82943 23.82137 35023 ft 338 kts 332°
2026-05-06 17:08 40.87096 23.79513 35030 ft 339 kts 332°
2026-05-06 17:08 40.90932 23.77085 35034 ft 339 kts 332°
2026-05-06 17:09 40.95186 23.74392 35007 ft 339 kts 332°
2026-05-06 17:09 40.99459 23.71677 35015 ft 342 kts 332°
2026-05-06 17:10 41.03714 23.68975 35009 ft 340 kts 332°
2026-05-06 17:10 41.07971 23.66265 35010 ft 340 kts 332°
2026-05-06 17:11 41.12227 23.63553 35011 ft 341 kts 332°
2026-05-06 17:11 41.16524 23.60810 35019 ft 341 kts 332°
2026-05-06 17:12 41.20776 23.58092 35021 ft 340 kts 332°
2026-05-06 17:12 41.25034 23.55366 35024 ft 342 kts 332°
2026-05-06 17:13 41.29336 23.52601 35024 ft 341 kts 332°
2026-05-06 17:13 41.33614 23.49851 35019 ft 340 kts 331°
2026-05-06 17:14 41.37865 23.47113 35034 ft 341 kts 332°
2026-05-06 17:14 41.42131 23.44358 35032 ft 340 kts 331°
2026-05-06 17:15 41.46383 23.41582 35023 ft 342 kts 331°
2026-05-06 17:15 41.50664 23.38795 35031 ft 343 kts 331°
2026-05-06 17:16 41.54957 23.35992 35034 ft 343 kts 331°
2026-05-06 17:16 41.59217 23.33206 35033 ft 342 kts 331°
2026-05-06 17:17 41.63509 23.30396 35037 ft 343 kts 331°
2026-05-06 17:17 41.67805 23.27579 35041 ft 344 kts 331°
2026-05-06 17:18 41.72105 23.24756 35044 ft 344 kts 331°
2026-05-06 17:18 41.76373 23.21949 35045 ft 344 kts 331°
2026-05-06 17:19 41.80674 23.19116 35042 ft 344 kts 331°
2026-05-06 17:19 41.84978 23.16276 35044 ft 344 kts 331°
2026-05-06 17:20 41.89275 23.13438 35046 ft 344 kts 331°
2026-05-06 17:20 41.93549 23.10610 35035 ft 344 kts 331°
2026-05-06 17:21 41.97860 23.07753 35032 ft 345 kts 330°
2026-05-06 17:21 42.02148 23.04907 35029 ft 345 kts 330°
2026-05-06 17:22 42.06466 23.02038 35027 ft 346 kts 330°
2026-05-06 17:22 42.10786 22.99162 35024 ft 346 kts 330°
2026-05-06 17:23 42.15084 22.96296 35014 ft 346 kts 330°
2026-05-06 17:23 42.19404 22.93412 35015 ft 346 kts 330°
2026-05-06 17:24 42.23722 22.90524 35020 ft 346 kts 330°
2026-05-06 17:24 42.28009 22.87653 35020 ft 346 kts 330°
2026-05-06 17:25 42.32319 22.84762 35002 ft 345 kts 330°
2026-05-06 17:25 42.36623 22.81871 34997 ft 345 kts 330°
2026-05-06 17:26 42.40926 22.78975 35001 ft 345 kts 330°
2026-05-06 17:26 42.45235 22.76071 34998 ft 347 kts 330°
2026-05-06 17:27 42.49568 22.73146 35012 ft 348 kts 330°
2026-05-06 17:27 42.53883 22.70230 35016 ft 348 kts 330°
2026-05-06 17:28 42.58219 22.67294 35010 ft 348 kts 330°
2026-05-06 17:28 42.62561 22.64350 35015 ft 348 kts 330°
2026-05-06 17:29 42.66878 22.61418 35016 ft 348 kts 330°
2026-05-06 17:29 42.71217 22.58467 35022 ft 348 kts 330°
2026-05-06 17:30 42.75534 22.55525 34998 ft 348 kts 330°
2026-05-06 17:30 42.79870 22.52567 34996 ft 348 kts 330°
2026-05-06 17:31 42.84209 22.49601 35009 ft 350 kts 330°
2026-05-06 17:31 42.88549 22.46650 34994 ft 350 kts 330°
2026-05-06 17:32 42.92917 22.43684 34987 ft 350 kts 330°
2026-05-06 17:32 42.97281 22.40710 34995 ft 350 kts 330°
2026-05-06 17:33 43.01632 22.37744 34996 ft 350 kts 330°
2026-05-06 17:33 43.05994 22.34763 34982 ft 350 kts 330°
2026-05-06 17:34 43.10359 22.31776 34974 ft 352 kts 330°
2026-05-06 17:34 43.14717 22.28789 34965 ft 352 kts 330°
2026-05-06 17:35 43.19100 22.25780 34967 ft 351 kts 330°
2026-05-06 17:35 43.23468 22.22777 34955 ft 351 kts 330°
2026-05-06 17:36 43.30020 22.18263 34957 ft 352 kts 330°
2026-05-06 17:36 43.34362 22.15265 34951 ft 352 kts 330°
2026-05-06 17:37 43.38744 22.12235 34955 ft 353 kts 330°
2026-05-06 17:37 43.43141 22.09190 34949 ft 353 kts 330°
2026-05-06 17:38 43.47508 22.06160 34951 ft 353 kts 330°
2026-05-06 17:38 43.51896 22.03111 34950 ft 353 kts 330°
2026-05-06 17:39 43.55543 22.00572 34951 ft 353 kts 330°
2026-05-06 17:39 43.59929 21.97516 34953 ft 352 kts 330°
2026-05-06 17:40 43.64315 21.94453 34954 ft 353 kts 330°
2026-05-06 17:40 43.68706 21.91383 34956 ft 354 kts 330°
2026-05-06 17:41 43.73071 21.88326 34954 ft 354 kts 330°
2026-05-06 17:41 43.77457 21.85249 34951 ft 353 kts 330°
2026-05-06 17:42 43.81853 21.82160 34955 ft 353 kts 330°
2026-05-06 17:42 43.86229 21.79079 34955 ft 354 kts 330°
2026-05-06 17:43 43.90612 21.75988 34959 ft 356 kts 330°
2026-05-06 17:43 43.95022 21.72875 34957 ft 354 kts 330°
2026-05-06 17:44 43.99414 21.69767 34955 ft 354 kts 330°
2026-05-06 17:44 44.03823 21.66643 34955 ft 355 kts 330°
2026-05-06 17:45 44.08194 21.63540 34962 ft 355 kts 329°
2026-05-06 17:45 44.12583 21.60420 34949 ft 355 kts 329°
2026-05-06 17:46 44.17007 21.57269 34945 ft 355 kts 329°
2026-05-06 17:46 44.21417 21.54123 34943 ft 355 kts 329°
2026-05-06 17:47 44.25798 21.50992 34949 ft 355 kts 329°
2026-05-06 17:47 44.30215 21.47830 34937 ft 355 kts 329°
2026-05-06 17:48 44.34609 21.44680 34941 ft 353 kts 329°
2026-05-06 17:48 44.38971 21.41547 34923 ft 355 kts 329°
2026-05-06 17:49 44.43401 21.38359 34939 ft 357 kts 329°
2026-05-06 17:49 44.47816 21.35178 34928 ft 356 kts 329°
2026-05-06 17:50 44.52198 21.32014 34920 ft 356 kts 329°
2026-05-06 17:50 44.56629 21.28810 34928 ft 355 kts 329°
2026-05-06 17:51 44.60994 21.25647 34925 ft 354 kts 329°
2026-05-06 17:51 44.65388 21.22459 34927 ft 356 kts 328°
2026-05-06 17:52 44.69808 21.19245 34926 ft 359 kts 328°
2026-05-06 17:52 44.74239 21.16020 34919 ft 357 kts 328°
2026-05-06 17:53 44.78645 21.12805 34919 ft 357 kts 328°
2026-05-06 17:53 44.83073 21.09570 34917 ft 358 kts 328°
2026-05-06 17:54 44.87479 21.06345 34920 ft 358 kts 328°
2026-05-06 17:54 44.91921 21.03088 34932 ft 359 kts 328°
2026-05-06 17:55 44.96356 20.99829 34925 ft 361 kts 328°
2026-05-06 17:55 45.00816 20.96549 34930 ft 360 kts 328°
2026-05-06 17:56 45.05275 20.93262 34917 ft 360 kts 328°
2026-05-06 17:56 45.09718 20.89980 34914 ft 359 kts 328°
2026-05-06 17:57 45.14120 20.86725 34910 ft 359 kts 328°
2026-05-06 17:57 45.18552 20.83440 34909 ft 359 kts 328°
2026-05-06 17:58 45.23020 20.80120 34923 ft 363 kts 328°
2026-05-06 17:58 45.27472 20.76813 34904 ft 362 kts 328°
2026-05-06 17:59 45.31943 20.73481 34908 ft 362 kts 328°
2026-05-06 17:59 45.36405 20.70151 34898 ft 362 kts 328°
2026-05-06 18:00 45.40849 20.66828 34901 ft 362 kts 328°
2026-05-06 18:00 45.45322 20.63477 34898 ft 362 kts 328°
2026-05-06 18:01 45.49806 20.60111 34909 ft 365 kts 327°
2026-05-06 18:01 45.54267 20.56761 34911 ft 362 kts 327°
2026-05-06 18:02 45.58745 20.53386 34906 ft 363 kts 327°
2026-05-06 18:02 45.63190 20.50033 34912 ft 363 kts 327°
2026-05-06 18:03 45.67673 20.46645 34911 ft 363 kts 327°
2026-05-06 18:03 45.72125 20.43273 34912 ft 364 kts 327°
2026-05-06 18:04 45.76619 20.39864 34914 ft 365 kts 327°
2026-05-06 18:04 45.81127 20.36438 34912 ft 366 kts 327°
2026-05-06 18:05 45.85609 20.33026 34912 ft 366 kts 327°
2026-05-06 18:05 45.90111 20.29591 34913 ft 366 kts 327°
2026-05-06 18:06 45.94605 20.26157 34916 ft 365 kts 327°
2026-05-06 18:06 45.99093 20.22721 34915 ft 365 kts 327°
2026-05-06 18:07 46.03550 20.19303 34908 ft 365 kts 327°
2026-05-06 18:07 46.08058 20.15837 34911 ft 366 kts 327°
2026-05-06 18:08 46.12568 20.12366 34914 ft 367 kts 327°
2026-05-06 18:08 46.17137 20.09046 34912 ft 371 kts 340°
2026-05-06 18:09 46.22065 20.06719 34909 ft 371 kts 335°
2026-05-06 18:09 46.26933 20.04359 34913 ft 369 kts 337°
2026-05-06 18:10 46.31821 20.02030 34914 ft 370 kts 336°
2026-05-06 18:10 46.36708 19.99668 34909 ft 370 kts 336°
2026-05-06 18:11 46.40782 19.97712 34917 ft 371 kts 336°
2026-05-06 18:11 46.46490 19.94953 34915 ft 371 kts 336°
2026-05-06 18:12 46.50545 19.92994 34902 ft 368 kts 336°
2026-05-06 18:12 46.56213 19.90245 34904 ft 369 kts 336°
2026-05-06 18:13 46.60273 19.88275 34905 ft 369 kts 336°
2026-05-06 18:13 46.65145 19.85905 34905 ft 369 kts 336°
2026-05-06 18:14 46.70027 19.83526 34922 ft 370 kts 336°
2026-05-06 18:14 46.74928 19.81133 34918 ft 370 kts 336°
2026-05-06 18:15 46.79795 19.78752 34916 ft 370 kts 336°
2026-05-06 18:15 46.84691 19.76353 34919 ft 370 kts 336°
2026-05-06 18:16 46.89567 19.73959 34923 ft 370 kts 336°
2026-05-06 18:16 46.94467 19.71548 34916 ft 370 kts 336°
2026-05-06 18:17 46.99326 19.69152 35070 ft 370 kts 336°
2026-05-06 18:17 47.01780 19.67941 35304 ft 371 kts 336°
2026-05-06 18:17 47.04228 19.66731 35549 ft 372 kts 336°
2026-05-06 18:18 47.06656 19.65530 35778 ft 373 kts 335°
2026-05-06 18:18 47.09123 19.64308 35904 ft 376 kts 336°
2026-05-06 18:18 47.14047 19.61872 35889 ft 369 kts 335°
2026-05-06 18:19 47.18915 19.59448 35889 ft 372 kts 335°
2026-05-06 18:19 47.23836 19.57001 35880 ft 372 kts 335°
2026-05-06 18:20 47.28717 19.54566 35881 ft 372 kts 335°
2026-05-06 18:20 47.33642 19.52105 35881 ft 372 kts 335°
2026-05-06 18:21 47.38532 19.49656 35881 ft 372 kts 335°
2026-05-06 18:21 47.43449 19.47190 35885 ft 373 kts 335°
2026-05-06 18:22 47.48362 19.44720 35884 ft 374 kts 335°
2026-05-06 18:22 47.53291 19.42238 35886 ft 374 kts 335°
2026-05-06 18:23 47.58197 19.39762 35884 ft 374 kts 335°
2026-05-06 18:23 47.63129 19.37268 35883 ft 374 kts 335°
2026-05-06 18:24 47.68026 19.34787 35887 ft 372 kts 335°
2026-05-06 18:24 47.72918 19.32303 35880 ft 371 kts 335°
2026-05-06 18:25 47.77872 19.29778 35911 ft 385 kts 335°
2026-05-06 18:25 47.83062 19.27133 35900 ft 402 kts 336°
2026-05-06 18:26 47.88443 19.24384 35903 ft 420 kts 336°
2026-05-06 18:26 47.94094 19.21491 35900 ft 438 kts 336°
2026-05-06 18:27 47.99986 19.18468 35899 ft 456 kts 336°
2026-05-06 18:27 48.06098 19.15324 35899 ft 472 kts 336°
2026-05-06 18:28 48.12416 19.12065 35895 ft 487 kts 336°
2026-05-06 18:28 48.18801 19.08767 35886 ft 489 kts 336°
2026-05-06 18:29 48.25249 19.05422 35870 ft 489 kts 336°
2026-05-06 18:29 48.31686 19.02076 35867 ft 489 kts 336°
2026-05-06 18:30 48.38112 18.98726 35880 ft 488 kts 336°
2026-05-06 18:30 48.44493 18.95391 35868 ft 487 kts 336°
2026-05-06 18:31 48.50894 18.92036 35869 ft 487 kts 336°
2026-05-06 18:31 48.57317 18.88660 35874 ft 489 kts 336°
2026-05-06 18:32 48.63742 18.85275 35875 ft 489 kts 336°
2026-05-06 18:32 48.70112 18.81910 35867 ft 486 kts 336°
2026-05-06 18:33 48.76515 18.78517 35862 ft 487 kts 336°
2026-05-06 18:33 48.82910 18.75121 35860 ft 486 kts 336°
2026-05-06 18:34 48.89303 18.71715 35869 ft 486 kts 336°
2026-05-06 18:34 48.95656 18.68322 35850 ft 486 kts 335°
2026-05-06 18:35 49.02040 18.64903 35848 ft 487 kts 335°
2026-05-06 18:35 49.08449 18.61462 35839 ft 487 kts 335°
2026-05-06 18:36 49.14820 18.58031 35844 ft 487 kts 335°
2026-05-06 18:36 49.21217 18.54578 35823 ft 485 kts 335°
2026-05-06 18:37 49.26515 18.51709 35804 ft 486 kts 335°